Location: Hac?musa Deresi
(39.1694°N, 32.2508°E)
Time: 15:41:15
(UTC+00:00)

CZ-4C R/B - Pass Details

Date: 22 April 2026
Orbit: 476 x 1501 km, 63.4° (Epoch: 11 May)

Event Time Altitude Azimuth Distance (km) Brightness Sun altitude
Exits shadow 22:20:44 16° 34° (NE) 1,761 4.4 -37.9°
Drops below altitude 10° 22:21:46 10° 34° (NE) 2,177 5.0 -37.8°
Sets 22:24:27 0° 34° (NE) 3,266 6.1 -37.7°
